THURAYA-3 (32404 NORAD) Tracking and Keplerian Element Data

This shows tracking and keplerian element data for the satellite.

Feedback or suggestion? Click here.




ElementValue
Catalog32404
NameTHURAYA-3
Epoch Orbit4911
Epoch Day161.77923157
Epoch Year2021
RAAN16.6267
Inclination3.8474
Eccentricity0.0004698
Argument of Perigee58.8996
Mean Anonmoly202.8434
Mean Motion1.00272597
Decay Rate-2.91E-06
L11 32404U 08001A 21161.77923157 -.00000291 00000-0 00000-0 0 9997
L22 32404 3.8474 16.6267 0004698 58.8996 202.8434 1.00272597 49112

Live tracking and technical data element details for THURAYA-3 (NORAD 32404). THURAYA-3 can be tracked NOW for your location showing map with azimuth and elevation plus other details from your city location.

Track the satellite on the map from your city or location and see movement details for azimuth, elevation, latitude, longitude, range, height, and movement on the map or in text.







IsCatalogInMostPopularTable: catalog: 32404, numindb: 897
Update: records affected: 1



GetName: 32404 THURAYA-3

Hit Count: updated at: Sun, 13 Jun 2021 02:23:00 GMT